[[{"header":{"parameterUnit":"m.s-1","parameterCategory":1,"la1":30.2991,"la2":30.254,"lo1":-89.0895,"lo2":-89.0444,"dy":0.0017,"dx":0.0017,"nx":28,"ny":28,"refTime":"2023-11-05T09:00:00:Z","depth":0,"parameterNumber":2,"parameterNumberName":"U-component_of_WINDS"},"data":[0,0,0,0,0,0,0,0,0,0,0,0,0,0,0,0,0,0,0,0,0,0,0,0,0,0,0,0,0,0,0,0,0,0,0,0,0,0,0,0,0,0,0,0,0,0,0,0,0,0,0,0,0,0,0,0,0,0,-0.1676,-0.1677,0,-0.171,-0.171,-0.1711,-0.1779,-0.178,-0.1781,-0.1783,-0.1814,-0.1814,-0.1813,0,0,0,0,0,0,0,0,0,0,0,0,0,-0.1671,-0.167,-0.1676,-0.1677,-0.1677,-0.171,-0.171,-0.1711,-0.1778,-0.178,-0.1782,-0.1783,-0.1814,-0.1814,-0.1813,0,0,0,0,0,0,0,0,0,0,0,0,0,-0.1685,-0.167,-0.1676,-0.1715,-0.1719,-0.171,-0.171,-0.1711,-0.1778,-0.178,-0.1782,-0.1784,-0.1815,-0.1814,-0.1813,-0.1768,0,0,-0.1811,-0.1811,0,0,0,0,0,0,0,0,-0.1684,-0.1685,-0.1709,-0.1712,-0.1716,-0.1742,-0.172,-0.173,-0.1777,-0.1755,-0.1783,-0.1785,-0.1788,-0.179,-0.1792,-0.177,-0.1771,-0.1811,-0.1811,-0.1811,-0.181,0,0,0,0,0,0,0,-0.1683,-0.1684,-0.1689,-0.1709,-0.1714,-0.1731,-0.1735,-0.1722,-0.176,-0.1757,-0.1762,-0.1766,-0.1791,-0.1792,-0.1793,-0.1772,-0.1811,-0.1811,-0.181,-0.181,-0.1717,-0.1715,0,0,0,0,0,0,-0.1677,-0.1683,-0.1688,-0.1691,-0.1705,-0.1729,-0.1734,-0.1732,-0.176,-0.1767,-0.1764,-0.1769,-0.1792,-0.1794,-0.1794,-0.1744,-0.1811,-0.181,-0.181,-0.1719,-0.1716,-0.1714,0,0,0,0,0,0,-0.1676,-0.1677,-0.1687,-0.1688,-0.1691,-0.1727,-0.1724,-0.1731,-0.1733,-0.1765,-0.1772,-0.1758,-0.1794,-0.1795,-0.1775,-0.1746,-0.181,-0.1809,-0.1721,-0.1718,-0.1715,-0.1642,0,0,0,0,0,0,-0.1676,-0.1676,-0.1659,-0.1687,-0.1691,-0.1667,-0.1722,-0.1731,-0.1732,-0.1738,-0.1762,-0.1768,-0.1796,-0.1776,-0.1774,-0.1746,-0.1809,-0.1724,-0.172,-0.1716,-0.1647,-0.1637,-0.1628,0,0,0,0,0,-0.1675,-0.1636,-0.1658,-0.1658,-0.167,-0.1665,-0.1667,-0.17,-0.1729,-0.1712,-0.1734,-0.1767,-0.175,-0.1773,-0.1772,-0.1743,-0.1726,-0.1721,-0.1716,-0.1652,-0.1639,-0.1628,0,0,0,0,0,0,-0.1602,-0.1641,-0.1665,-0.1634,-0.1646,-0.1676,-0.1656,-0.1686,-0.1689,-0.1695,-0.1737,-0.1741,-0.1715,-0.1728,-0.1753,-0.1702,-0.1743,-0.1738,-0.1694,-0.1683,-0.1673,-0.1669,-0.1808,0,0,0,0,0,-0.1583,-0.1575,-0.161,-0.1579,-0.1584,-0.1619,-0.1618,-0.1644,-0.1657,-0.1662,-0.1682,-0.1693,-0.1691,-0.1688,-0.1688,-0.1651,-0.1657,-0.1631,-0.1622,-0.1614,-0.1607,-0.159,-0.1578,-0.1698,-0.1698,-0.1699,0,0,-0.1541,-0.1562,-0.1554,-0.1565,-0.1577,-0.1568,-0.1622,-0.1611,-0.1605,-0.166,-0.1642,-0.1657,-0.1673,-0.1644,-0.1633,-0.1654,-0.1577,-0.1608,-0.1601,-0.1599,-0.1584,-0.1572,-0.1562,-0.1695,-0.1696,-0.1696,0,0,-0.1461,-0.1476,-0.1453,-0.1465,-0.1484,-0.1508,-0.1502,-0.1529,-0.1542,-0.1525,-0.1567,-0.1561,-0.1555,-0.1565,-0.1569,-0.1498,-0.1528,-0.1497,-0.1445,-0.1427,-0.1418,-0.1409,-0.1383,-0.1373,-0.1491,-0.1491,-0.1491,0,-0.1407,-0.1396,-0.1436,-0.1423,-0.1426,-0.1479,-0.1455,-0.1465,-0.1481,-0.1483,-0.1507,-0.1503,-0.1517,-0.1492,-0.1475,-0.1477,-0.1472,-0.1492,-0.1416,-0.1408,-0.1401,-0.1376,-0.1366,-0.1487,-0.1487,-0.1488,-0.1488,0,-0.1328,-0.1321,-0.1299,-0.1316,-0.1318,-0.1299,-0.1337,-0.1334,-0.1361,-0.1382,-0.1365,-0.1385,-0.139,-0.1387,-0.1412,-0.1365,-0.1378,-0.1409,-0.145,-0.1385,-0.1362,-0.1353,-0.1481,-0.1483,-0.1484,-0.1485,0,0,-0.1198,-0.1241,-0.1232,-0.1241,-0.1267,-0.1262,-0.1247,-0.1253,-0.1249,-0.1261,-0.1248,-0.1245,-0.1274,-0.1279,-0.1306,-0.1291,-0.1232,-0.1324,-0.1325,-0.1305,-0.1182,-0.1157,-0.1145,-0.1254,-0.1253,-0.1252,-0.118,0,-0.1123,-0.1098,-0.1136,-0.1103,-0.1097,-0.1148,-0.1135,-0.115,-0.1171,-0.1169,-0.1192,-0.1188,-0.1228,-0.1232,-0.1219,-0.1242,-0.1208,-0.1248,-0.1242,-0.1241,-0.1233,-0.1133,-0.1106,-0.1037,-0.1172,-0.117,-0.1169,0,-0.1029,-0.1038,-0.1005,-0.1035,-0.1034,-0.1021,-0.1031,-0.1029,-0.1047,-0.1064,-0.1071,-0.1105,-0.1092,-0.1135,-0.1118,-0.1145,-0.1145,-0.1157,-0.1155,-0.1153,-0.1199,-0.1127,-0.1017,-0.1005,-0.1156,-0.1157,-0.1158,0,-0.0936,-0.094,-0.092,-0.0927,-0.0962,-0.0952,-0.0966,-0.0987,-0.0989,-0.0999,-0.1,-0.1007,-0.101,-0.1015,-0.105,-0.1078,-0.1029,-0.1075,-0.1041,-0.104,-0.1025,-0.1025,-0.0911,-0.103,-0.103,-0.103,-0.1031,0,-0.0846,-0.0823,-0.0879,-0.0867,-0.0843,-0.0888,-0.0864,-0.0883,-0.0902,-0.0895,-0.0941,-0.0933,-0.0981,-0.0978,-0.1006,-0.0988,-0.0989,-0.1002,-0.1009,-0.0996,-0.0994,-0.0994,-0.0999,-0.1028,-0.1028,-0.1029,-0.1029,0,-0.0735,-0.0772,-0.0755,-0.0791,-0.08,-0.0781,-0.0812,-0.0802,-0.0829,-0.0819,-0.0819,-0.0859,-0.0859,-0.0896,-0.0902,-0.0921,-0.089,-0.0907,-0.0883,-0.0888,-0.0852,-0.0854,-0.0731,-0.0717,-0.0847,-0.0846,-0.0845,0,-0.0673,-0.0657,-0.0693,-0.0692,-0.0705,-0.0702,-0.0706,-0.075,-0.0752,-0.0774,-0.0761,-0.0765,-0.077,-0.0768,-0.0797,-0.0803,-0.0819,-0.0776,-0.082,-0.0808,-0.0816,-0.0815,-0.0814,-0.0765,-0.0764,-0.0763,-0.0761,0,-0.0559,-0.0579,-0.0582,-0.0593,-0.0596,-0.0605,-0.0618,-0.0615,-0.0664,-0.0663,-0.0664,-0.0669,-0.0677,-0.068,-0.0692,-0.0707,-0.0742,-0.0748,-0.0741,-0.0725,-0.0712,-0.0717,-0.0855,-0.075,-0.0751,-0.0752,-0.0752,-0.0753,-0.047,-0.0459,-0.0482,-0.0485,-0.05,-0.0512,-0.0505,-0.0531,-0.0533,-0.0544,-0.0571,-0.0568,-0.059,-0.061,-0.0622,-0.062,-0.0641,-0.063,-0.0627,-0.0623,-0.0615,-0.0715,-0.0623,-0.0623,-0.0624,-0.0624,-0.0624,0,-0.0356,-0.0376,-0.0378,-0.0395,-0.0397,-0.0434,-0.0451,-0.0449,-0.0446,-0.0464,-0.047,-0.0472,-0.0476,-0.0507,-0.0515,-0.0508,-0.0524,-0.0508,-0.0507,-0.051,-0.0597,-0.0602,-0.0495,-0.0495,-0.0495,-0.0495,-0.0495,-0.0495,-0.0297,-0.028,-0.0304,-0.0295,-0.0314,-0.0312,-0.0319,-0.033,-0.0345,-0.0345,-0.035,-0.0371,-0.0395,-0.0405,-0.0411,-0.042,-0.042,-0.0398,-0.0412,-0.0492,-0.0504,-0.0516,-0.0521,-0.0398,-0.0398,-0.0326,-0.0325,-0.0325]},{"header":{"parameterUnit":"m.s-1","parameterCategory":1,"la1":30.2991,"la2":30.254,"lo1":-89.0895,"lo2":-89.0444,"dy":0.0017,"dx":0.0017,"nx":28,"ny":28,"refTime":"2023-11-05T09:00:00:Z","depth":0,"parameterNumber":3,"parameterNumberName":"V-component_of_WINDS"},"data":[0,0,0,0,0,0,0,0,0,0,0,0,0,0,0,0,0,0,0,0,0,0,0,0,0,0,0,0,0,0,0,0,0,0,0,0,0,0,0,0,0,0,0,0,0,0,0,0,0,0,0,0,0,0,0,0,0,0,-0.6437,-0.6437,0,-0.646,-0.646,-0.646,-0.6451,-0.6451,-0.645,-0.645,-0.6475,-0.6476,-0.6477,0,0,0,0,0,0,0,0,0,0,0,0,0,-0.6388,-0.6389,-0.6437,-0.6437,-0.6438,-0.646,-0.646,-0.646,-0.6451,-0.6451,-0.645,-0.645,-0.6475,-0.6476,-0.6477,0,0,0,0,0,0,0,0,0,0,0,0,0,-0.641,-0.639,-0.6437,-0.6436,-0.6436,-0.646,-0.646,-0.646,-0.6452,-0.6451,-0.645,-0.6449,-0.6474,-0.6476,-0.6477,-0.6504,0,0,-0.6483,-0.6484,0,0,0,0,0,0,0,0,-0.6409,-0.6412,-0.6436,-0.6436,-0.6436,-0.6452,-0.6452,-0.6475,-0.6452,-0.6446,-0.645,-0.6449,-0.6468,-0.647,-0.6476,-0.6505,-0.6507,-0.6483,-0.6484,-0.6485,-0.6485,0,0,0,0,0,0,0,-0.6408,-0.6411,-0.6446,-0.6436,-0.6436,-0.6435,-0.6437,-0.6456,-0.6461,-0.6446,-0.6446,-0.6448,-0.6468,-0.6475,-0.6477,-0.6507,-0.6483,-0.6484,-0.6486,-0.6486,-0.6561,-0.6562,0,0,0,0,0,0,-0.6406,-0.641,-0.6445,-0.6447,-0.642,-0.6436,-0.6439,-0.6448,-0.6461,-0.6462,-0.6449,-0.6448,-0.6472,-0.6475,-0.6478,-0.6511,-0.6485,-0.6486,-0.6487,-0.656,-0.6561,-0.6562,0,0,0,0,0,0,-0.6405,-0.6409,-0.6445,-0.6428,-0.6433,-0.6438,-0.6448,-0.6449,-0.6455,-0.6463,-0.6464,-0.6455,-0.6471,-0.6475,-0.6498,-0.6512,-0.6487,-0.6489,-0.6559,-0.6561,-0.6562,-0.6578,0,0,0,0,0,0,-0.6403,-0.6409,-0.6418,-0.6428,-0.6433,-0.6464,-0.6449,-0.645,-0.6458,-0.6457,-0.6469,-0.647,-0.6471,-0.6495,-0.65,-0.6514,-0.649,-0.6558,-0.656,-0.6561,-0.6576,-0.6579,-0.6582,0,0,0,0,0,-0.6402,-0.6422,-0.6419,-0.6423,-0.6445,-0.6464,-0.6467,-0.6468,-0.6459,-0.6469,-0.6475,-0.647,-0.6509,-0.6498,-0.6503,-0.6517,-0.6557,-0.6559,-0.6561,-0.6574,-0.6579,-0.6582,0,0,0,0,0,0,-0.6413,-0.6423,-0.642,-0.6444,-0.6453,-0.6463,-0.6476,-0.6472,-0.6485,-0.6483,-0.6484,-0.6487,-0.6511,-0.6516,-0.6503,-0.6545,-0.6532,-0.6535,-0.654,-0.6545,-0.6548,-0.6546,-0.6492,0,0,0,0,0,-0.6418,-0.6432,-0.644,-0.6461,-0.6466,-0.647,-0.6478,-0.6478,-0.6488,-0.6492,-0.6499,-0.651,-0.6525,-0.6535,-0.6549,-0.6577,-0.658,-0.6589,-0.6592,-0.6595,-0.6598,-0.6615,-0.6619,-0.6569,-0.6569,-0.6569,0,0,-0.643,-0.6437,-0.6445,-0.6463,-0.6471,-0.6486,-0.6473,-0.649,-0.6502,-0.6495,-0.6517,-0.6523,-0.6535,-0.656,-0.6572,-0.6566,-0.6613,-0.6598,-0.66,-0.6601,-0.6617,-0.6622,-0.6626,-0.6571,-0.6571,-0.657,0,0,-0.6458,-0.6464,-0.6482,-0.649,-0.6502,-0.6504,-0.6509,-0.6519,-0.6523,-0.6545,-0.6541,-0.6555,-0.6581,-0.659,-0.6598,-0.6631,-0.6628,-0.6636,-0.6653,-0.6669,-0.6673,-0.6677,-0.669,-0.6694,-0.6639,-0.6639,-0.6639,0,-0.647,-0.6493,-0.6492,-0.6509,-0.6518,-0.6513,-0.6532,-0.654,-0.6555,-0.6562,-0.6555,-0.6588,-0.6595,-0.6624,-0.6632,-0.6638,-0.6644,-0.6635,-0.6672,-0.6676,-0.6679,-0.6692,-0.6697,-0.664,-0.664,-0.664,-0.6639,0,-0.6508,-0.6524,-0.6537,-0.6553,-0.6563,-0.6581,-0.6584,-0.6595,-0.6594,-0.6598,-0.6621,-0.663,-0.6647,-0.6654,-0.6653,-0.6683,-0.6679,-0.6672,-0.6659,-0.6685,-0.6697,-0.6702,-0.6641,-0.6641,-0.6641,-0.664,0,0,-0.6544,-0.6559,-0.6564,-0.6572,-0.6585,-0.6597,-0.6616,-0.6632,-0.6641,-0.6653,-0.6669,-0.6692,-0.6686,-0.6695,-0.6695,-0.6709,-0.6737,-0.6701,-0.6701,-0.6709,-0.6772,-0.6778,-0.6783,-0.6734,-0.6735,-0.6736,-0.6771,0,-0.6574,-0.6606,-0.6607,-0.6636,-0.6652,-0.6647,-0.6664,-0.6674,-0.6678,-0.6693,-0.6698,-0.6714,-0.6705,-0.6711,-0.6724,-0.6731,-0.675,-0.6728,-0.6751,-0.6752,-0.6749,-0.6789,-0.6795,-0.6828,-0.6776,-0.6777,-0.6777,0,-0.6613,-0.6626,-0.6657,-0.6669,-0.6675,-0.669,-0.6705,-0.6719,-0.6731,-0.6733,-0.6744,-0.6743,-0.6763,-0.675,-0.6778,-0.6764,-0.6773,-0.6778,-0.6779,-0.6782,-0.6767,-0.6794,-0.6838,-0.6844,-0.6784,-0.6784,-0.6783,0,-0.6638,-0.6662,-0.6685,-0.6691,-0.6705,-0.6716,-0.6722,-0.6733,-0.6743,-0.6757,-0.6764,-0.678,-0.6789,-0.6803,-0.6806,-0.6796,-0.6836,-0.6822,-0.684,-0.684,-0.6849,-0.6848,-0.6896,-0.6853,-0.6853,-0.6853,-0.6853,0,-0.6672,-0.6691,-0.6696,-0.671,-0.6732,-0.6733,-0.6756,-0.6761,-0.6772,-0.6788,-0.6785,-0.68,-0.6803,-0.6819,-0.6822,-0.6847,-0.6851,-0.6854,-0.6855,-0.6855,-0.6855,-0.6862,-0.686,-0.6854,-0.6854,-0.6854,-0.6854,0,-0.6703,-0.6707,-0.6731,-0.6742,-0.6746,-0.6762,-0.6772,-0.6786,-0.679,-0.6811,-0.6815,-0.6823,-0.6842,-0.6847,-0.6869,-0.6871,-0.6901,-0.6899,-0.6896,-0.6897,-0.6915,-0.6913,-0.6969,-0.6977,-0.6928,-0.6929,-0.6929,0,-0.6724,-0.6739,-0.6753,-0.6763,-0.677,-0.6786,-0.6797,-0.6799,-0.681,-0.6826,-0.6838,-0.6857,-0.6872,-0.6903,-0.6911,-0.6928,-0.6928,-0.6946,-0.693,-0.693,-0.693,-0.6929,-0.6931,-0.6949,-0.695,-0.695,-0.6951,0,-0.6763,-0.6765,-0.6779,-0.6795,-0.6808,-0.6821,-0.6833,-0.6841,-0.6846,-0.6859,-0.6878,-0.6889,-0.6913,-0.6932,-0.695,-0.6958,-0.6956,-0.6955,-0.6961,-0.6961,-0.696,-0.6962,-0.6906,-0.6954,-0.6954,-0.6954,-0.6953,-0.6953,-0.6791,-0.6805,-0.6817,-0.6834,-0.6843,-0.6855,-0.6869,-0.6875,-0.6891,-0.691,-0.6911,-0.6932,-0.6946,-0.697,-0.6979,-0.6996,-0.6991,-0.6998,-0.7,-0.7002,-0.7005,-0.6956,-0.7,-0.6999,-0.6999,-0.6999,-0.6999,0,-0.6831,-0.6838,-0.6854,-0.6871,-0.6885,-0.6881,-0.6895,-0.6907,-0.6926,-0.6938,-0.6953,-0.6976,-0.6995,-0.7004,-0.7024,-0.7036,-0.7036,-0.7041,-0.7041,-0.7043,-0.7008,-0.7002,-0.7041,-0.7041,-0.7041,-0.7041,-0.7041,-0.7041,-0.6853,-0.6876,-0.688,-0.6908,-0.6916,-0.6937,-0.6945,-0.6957,-0.6967,-0.6992,-0.7008,-0.7014,-0.7026,-0.7046,-0.7064,-0.7066,-0.7074,-0.708,-0.7082,-0.7049,-0.7045,-0.7041,-0.7036,-0.7082,-0.7082,-0.7116,-0.7117,-0.7117]}]]